| time (UTC) | temp F | wind direction | speed MPH | gust MPH | rain 1hr in | rain 24hr in | rain mn in | humidity % | barometer mb |
| 20260508055902 | 58 | 257 | 3.0 | 5.0 | 0.00 | 0.96 | 0.01 | 83 | 1010.5 |
| 20260508055403 | 58 | 257 | 3.0 | 6.0 | 0.00 | 0.96 | 0.01 | 84 | 1010.5 |
| 20260508054903 | 58 | 254 | 3.0 | 5.0 | 0.00 | 0.96 | 0.01 | 83 | 1010.6 |
| 20260508054402 | 58 | 257 | 3.0 | 5.0 | 0.00 | 0.96 | 0.01 | 83 | 1010.5 |
| 20260508053902 | 58 | 253 | 2.0 | 3.0 | 0.00 | 0.96 | 0.01 | 83 | 1010.4 |
| 20260508053402 | 58 | 222 | 3.0 | 5.0 | 0.00 | 0.96 | 0.01 | 82 | 1010.4 |
| 20260508052402 | 58 | 213 | 2.0 | 3.0 | 0.00 | 0.96 | 0.01 | 83 | 1010.1 |
| 20260508051402 | 58 | 225 | 3.0 | 5.0 | 0.00 | 0.96 | 0.01 | 82 | 1010.1 |
| 20260508050903 | 58 | 228 | 3.0 | 5.0 | 0.00 | 0.96 | 0.01 | 82 | 1010.0 |
| 20260508050402 | 58 | 236 | 2.0 | 3.0 | 0.00 | 0.96 | 0.01 | 81 | 1009.9 |
| 20260508045903 | 59 | 230 | 3.0 | 5.0 | 0.00 | 0.96 | 0.01 | 81 | 1009.9 |
| 20260508045402 | 59 | 220 | 3.0 | 5.0 | 0.00 | 0.96 | 0.01 | 80 | 1009.9 |
| 20260508044902 | 58 | 215 | 3.0 | 5.0 | 0.00 | 0.96 | 0.01 | 81 | 1009.8 |
| 20260508044403 | 58 | 226 | 3.0 | 5.0 | 0.00 | 0.96 | 0.01 | 82 | 1009.8 |
| 20260508042402 | 58 | 229 | 2.0 | 3.0 | 0.00 | 0.96 | 0.01 | 82 | 1009.7 |
| 20260508041902 | 58 | 223 | 3.0 | 5.0 | 0.00 | 0.96 | 0.01 | 82 | 1009.5 |
| 20260508041403 | 58 | 240 | 3.0 | 3.0 | 0.00 | 0.96 | 0.01 | 81 | 1009.6 |
| 20260508040903 | 58 | 243 | 2.0 | 3.0 | 0.00 | 0.96 | 0.01 | 80 | 1009.6 |
| 20260508040403 | 58 | 237 | 3.0 | 3.0 | 0.00 | 0.96 | 0.01 | 80 | 1009.7 |
| 20260508035402 | 58 | 224 | 2.0 | 3.0 | 0.00 | 0.96 | 0.01 | 81 | 1010.0 |
| 20260508034902 | 58 | 209 | 3.0 | 5.0 | 0.00 | 0.96 | 0.01 | 81 | 1010.0 |
| 20260508034402 | 58 | 207 | 2.0 | 3.0 | 0.00 | 0.96 | 0.01 | 81 | 1009.8 |
| 20260508033902 | 58 | 210 | 2.0 | 3.0 | 0.00 | 0.96 | 0.01 | 81 | 1009.8 |
| 20260508033402 | 58 | 216 | 2.0 | 3.0 | 0.00 | 0.96 | 0.01 | 81 | 1009.8 |
| 20260508032903 | 58 | 223 | 4.0 | 6.0 | 0.00 | 0.96 | 0.01 | 81 | 1009.7 |
| 20260508031902 | 58 | 222 | 3.0 | 5.0 | 0.00 | 0.96 | 0.01 | 83 | 1009.9 |
| 20260508031403 | 58 | 220 | 3.0 | 5.0 | 0.00 | 0.96 | 0.01 | 83 | 1009.8 |
| 20260508030903 | 58 | 215 | 3.0 | 5.0 | 0.00 | 0.96 | 0.01 | 83 | 1009.9 |
| 20260508025902 | 58 | 256 | 1.0 | 3.0 | 0.00 | 0.96 | 0.01 | 82 | 1009.7 |
| 20260508025402 | 58 | 236 | 1.0 | 3.0 | 0.00 | 0.96 | 0.01 | 82 | 1010.0 |
| 20260508024903 | 58 | 249 | 2.0 | 6.0 | 0.00 | 0.96 | 0.01 | 83 | 1010.1 |
| 20260508024403 | 58 | 245 | 2.0 | 3.0 | 0.00 | 0.96 | 0.01 | 84 | 1010.2 |
| 20260508023403 | 58 | 194 | 3.0 | 5.0 | 0.01 | 0.96 | 0.01 | 84 | 1010.1 |
| 20260508022403 | 58 | 212 | 2.0 | 5.0 | 0.01 | 0.96 | 0.01 | 84 | 1010.1 |
| 20260508021903 | 58 | 198 | 1.0 | 3.0 | 0.01 | 0.96 | 0.01 | 84 | 1010.2 |
| 20260508021403 | 58 | 206 | 2.0 | 3.0 | 0.01 | 0.96 | 0.01 | 83 | 1010.2 |
| 20260508020903 | 58 | 209 | 2.0 | 3.0 | 0.01 | 0.96 | 0.01 | 83 | 1010.2 |
| 20260508020403 | 58 | 204 | 3.0 | 3.0 | 0.01 | 0.96 | 0.01 | 83 | 1010.1 |
| 20260508015903 | 58 | 221 | 2.0 | 3.0 | 0.01 | 0.96 | 0.01 | 82 | 1010.2 |
| 20260508015402 | 58 | 217 | 2.0 | 5.0 | 0.01 | 0.96 | 0.01 | 82 | 1010.1 |
| 20260508014903 | 58 | 204 | 3.0 | 5.0 | 0.01 | 0.96 | 0.01 | 83 | 1010.2 |
| 20260508014403 | 57 | 199 | 3.0 | 5.0 | 0.01 | 0.96 | 0.01 | 83 | 1010.3 |
| 20260508013902 | 58 | 201 | 1.0 | 3.0 | 0.00 | 0.95 | 0.00 | 83 | 1010.3 |
| 20260508013402 | 58 | 248 | 0.0 | 2.0 | 0.00 | 0.95 | 0.00 | 82 | 1010.4 |
| 20260508012902 | 58 | 248 | 1.0 | 2.0 | 0.00 | 0.95 | 0.00 | 82 | 1010.6 |
| 20260508012403 | 58 | 234 | 1.0 | 3.0 | 0.00 | 0.95 | 0.00 | 82 | 1010.6 |
| 20260508011903 | 58 | 240 | 2.0 | 3.0 | 0.00 | 0.95 | 0.00 | 81 | 1010.7 |
| 20260508010903 | 58 | 250 | 1.0 | 2.0 | 0.00 | 0.95 | 0.00 | 83 | 1010.8 |
| 20260508010402 | 58 | 250 | 1.0 | 2.0 | 0.00 | 0.95 | 0.00 | 83 | 1010.9 |
| 20260508005902 | 58 | 231 | 1.0 | 3.0 | 0.00 | 0.95 | 0.00 | 82 | 1010.8 |
| 20260508005403 | 58 | 233 | 2.0 | 3.0 | 0.00 | 0.95 | 0.00 | 82 | 1010.8 |
| 20260508004903 | 58 | 236 | 3.0 | 3.0 | 0.00 | 0.95 | 0.00 | 83 | 1010.8 |
| 20260508004402 | 58 | 218 | 3.0 | 5.0 | 0.00 | 0.95 | 0.00 | 83 | 1010.8 |
| 20260508003902 | 58 | 229 | 2.0 | 5.0 | 0.00 | 0.95 | 0.00 | 84 | 1010.9 |
| 20260508003402 | 58 | 250 | 3.0 | 6.0 | 0.00 | 0.95 | 0.00 | 84 | 1010.8 |
| 20260508002902 | 57 | 222 | 3.0 | 5.0 | 0.00 | 0.95 | 0.00 | 84 | 1010.7 |
| 20260508001903 | 57 | 245 | 3.0 | 5.0 | 0.00 | 0.95 | 0.00 | 86 | 1010.9 |
| 20260508001402 | 57 | 247 | 3.0 | 5.0 | 0.00 | 0.95 | 0.00 | 86 | 1010.9 |
| 20260508000404 | 57 | 245 | 3.0 | 5.0 | 0.00 | 0.95 | 0.00 | 86 | 1010.9 |
| 20260507235902 | 57 | 253 | 2.0 | 3.0 | 0.00 | 0.95 | 0.00 | 86 | 1010.9 |
| 20260507234903 | 57 | 285 | 2.0 | 3.0 | 0.00 | 0.95 | 0.00 | 86 | 1011.0 |
| 20260507234402 | 57 | 292 | 2.0 | 3.0 | 0.00 | 0.95 | 0.00 | 86 | 1011.0 |
| 20260507233902 | 57 | 270 | 3.0 | 3.0 | 0.00 | 0.95 | 0.00 | 86 | 1011.0 |
| 20260507233403 | 57 | 289 | 2.0 | 3.0 | 0.00 | 0.95 | 0.00 | 85 | 1011.0 |
| 20260507232902 | 57 | 259 | 5.0 | 5.0 | 0.00 | 0.95 | 0.00 | 85 | 1010.9 |
| 20260507232402 | 57 | 254 | 3.0 | 5.0 | 0.00 | 0.95 | 0.00 | 86 | 1011.0 |
| 20260507231903 | 57 | 263 | 2.0 | 5.0 | 0.00 | 0.95 | 0.00 | 86 | 1011.0 |
| 20260507230902 | 57 | 253 | 3.0 | 6.0 | 0.00 | 0.95 | 0.00 | 86 | 1011.0 |
| 20260507230402 | 57 | 255 | 3.0 | 6.0 | 0.00 | 0.95 | 0.00 | 86 | 1011.1 |
| 20260507225903 | 57 | 276 | 2.0 | 5.0 | 0.00 | 0.95 | 0.00 | 86 | 1011.1 |
| 20260507225403 | 57 | 256 | 3.0 | 5.0 | 0.00 | 0.95 | 0.00 | 86 | 1011.1 |
| 20260507224903 | 58 | 249 | 3.0 | 5.0 | 0.00 | 0.95 | 0.00 | 85 | 1011.1 |
| 20260507224403 | 58 | 243 | 1.0 | 3.0 | 0.00 | 0.95 | 0.00 | 85 | 1011.1 |
| 20260507223402 | 58 | 237 | 1.0 | 3.0 | 0.00 | 0.95 | 0.00 | 86 | 1011.1 |
| 20260507222903 | 57 | 238 | 1.0 | 3.0 | 0.00 | 0.95 | 0.00 | 87 | 1011.1 |
| 20260507222403 | 58 | 248 | 2.0 | 3.0 | 0.00 | 0.95 | 0.00 | 86 | 1011.1 |
| 20260507221902 | 58 | 246 | 1.0 | 3.0 | 0.00 | 0.95 | 0.00 | 86 | 1011.1 |
| 20260507221402 | 58 | 249 | 2.0 | 3.0 | 0.00 | 0.95 | 0.00 | 86 | 1011.1 |
| 20260507220402 | 58 | 213 | 1.0 | 3.0 | 0.00 | 0.95 | 0.00 | 87 | 1011.2 |
| 20260507215902 | 58 | 213 | 2.0 | 3.0 | 0.00 | 0.95 | 0.95 | 87 | 1011.2 |
| 20260507215403 | 58 | 230 | 2.0 | 3.0 | 0.00 | 0.95 | 0.95 | 87 | 1011.3 |
| 20260507214903 | 58 | 243 | 2.0 | 3.0 | 0.00 | 0.95 | 0.95 | 87 | 1011.3 |
| 20260507214403 | 58 | 232 | 2.0 | 3.0 | 0.00 | 0.95 | 0.95 | 87 | 1011.5 |
| 20260507213903 | 57 | 238 | 2.0 | 5.0 | 0.00 | 0.95 | 0.95 | 87 | 1011.4 |
| 20260507213403 | 57 | 233 | 2.0 | 6.0 | 0.00 | 0.95 | 0.95 | 88 | 1011.5 |
| 20260507212902 | 57 | 224 | 2.0 | 6.0 | 0.00 | 0.95 | 0.95 | 88 | 1011.5 |
| 20260507212402 | 57 | 214 | 4.0 | 7.0 | 0.00 | 0.95 | 0.95 | 88 | 1011.6 |
| 20260507211902 | 57 | 240 | 4.0 | 7.0 | 0.01 | 0.95 | 0.95 | 88 | 1011.5 |
| 20260507211403 | 57 | 221 | 5.0 | 8.0 | 0.01 | 0.95 | 0.95 | 88 | 1011.5 |
| 20260507210902 | 57 | 207 | 3.0 | 7.0 | 0.01 | 0.95 | 0.95 | 89 | 1011.5 |
| 20260507210402 | 57 | 214 | 3.0 | 6.0 | 0.02 | 0.95 | 0.95 | 90 | 1011.3 |
| 20260507205903 | 57 | 231 | 2.0 | 5.0 | 0.02 | 0.95 | 0.95 | 90 | 1011.3 |
| 20260507205403 | 57 | 218 | 3.0 | 6.0 | 0.02 | 0.95 | 0.95 | 90 | 1011.2 |
| 20260507204903 | 57 | 233 | 5.0 | 6.0 | 0.03 | 0.95 | 0.95 | 90 | 1011.2 |
| 20260507204403 | 57 | 246 | 3.0 | 7.0 | 0.03 | 0.95 | 0.95 | 90 | 1011.2 |
| 20260507203902 | 57 | 273 | 4.0 | 8.0 | 0.03 | 0.95 | 0.95 | 90 | 1011.2 |
| 20260507202903 | 57 | 287 | 5.0 | 9.0 | 0.04 | 0.95 | 0.95 | 89 | 1011.1 |
| 20260507202402 | 57 | 262 | 6.0 | 9.0 | 0.05 | 0.95 | 0.95 | 89 | 1010.8 |
| 20260507201902 | 57 | 254 | 6.0 | 8.0 | 0.05 | 0.94 | 0.94 | 88 | 1010.7 |
| 20260507200903 | 58 | 260 | 6.0 | 9.0 | 0.08 | 0.94 | 0.94 | 87 | 1010.7 |
| 20260507200403 | 58 | 263 | 5.0 | 6.0 | 0.08 | 0.94 | 0.94 | 87 | 1010.7 |
| 20260507195903 | 58 | 259 | 3.0 | 5.0 | 0.09 | 0.94 | 0.94 | 87 | 1010.6 |
| 20260507195403 | 58 | 311 | 2.0 | 3.0 | 0.10 | 0.94 | 0.94 | 86 | 1010.7 |
| 20260507193903 | 59 | 216 | 1.0 | 3.0 | 0.12 | 0.92 | 0.92 | 85 | 1010.7 |
| 20260507193403 | 59 | 155 | 0.0 | 1.0 | 0.15 | 0.92 | 0.92 | 85 | 1010.7 |
| 20260507192902 | 59 | 155 | 1.0 | 5.0 | 0.16 | 0.91 | 0.91 | 84 | 1010.6 |
| 20260507192403 | 58 | 132 | 1.0 | 6.0 | 0.17 | 0.90 | 0.90 | 85 | 1010.7 |
| 20260507191902 | 58 | 108 | 3.0 | 8.0 | 0.18 | 0.89 | 0.89 | 86 | 1010.7 |
| 20260507191403 | 58 | 96 | 1.0 | 7.0 | 0.18 | 0.87 | 0.87 | 87 | 1010.7 |
| 20260507190903 | 58 | 195 | 1.0 | 6.0 | 0.21 | 0.87 | 0.87 | 86 | 1010.5 |
| 20260507190403 | 58 | 247 | 5.0 | 12.0 | 0.22 | 0.86 | 0.86 | 85 | 1010.2 |
| 20260507185902 | 58 | 247 | 5.0 | 12.0 | 0.23 | 0.85 | 0.85 | 84 | 1010.2 |
| 20260507185403 | 59 | 254 | 4.0 | 7.0 | 0.26 | 0.84 | 0.84 | 82 | 1010.2 |
| 20260507184903 | 59 | 154 | 3.0 | 8.0 | 0.34 | 0.83 | 0.83 | 81 | 1010.2 |
| 20260507184403 | 58 | 153 | 9.0 | 14.0 | 0.36 | 0.81 | 0.81 | 81 | 1010.0 |
| 20260507183903 | 58 | 144 | 10.0 | 13.0 | 0.37 | 0.80 | 0.80 | 83 | 1009.9 |
| 20260507183403 | 58 | 132 | 7.0 | 15.0 | 0.43 | 0.77 | 0.77 | 85 | 1010.1 |
| 20260507182903 | 57 | 148 | 10.0 | 14.0 | 0.56 | 0.74 | 0.74 | 85 | 1010.1 |
| 20260507182403 | 58 | 140 | 10.0 | 14.0 | 0.57 | 0.73 | 0.73 | 86 | 1009.9 |
| 20260507181903 | 58 | 105 | 11.0 | 20.0 | 0.59 | 0.71 | 0.71 | 86 | 1010.0 |
| 20260507181402 | 58 | 135 | 15.0 | 21.0 | 0.58 | 0.69 | 0.69 | 86 | 1009.8 |
| 20260507180903 | 58 | 125 | 14.0 | 22.0 | 0.56 | 0.66 | 0.66 | 85 | 1009.7 |
| 20260507180403 | 58 | 133 | 16.0 | 22.0 | 0.55 | 0.64 | 0.64 | 87 | 1009.6 |
| 20260507175903 | 58 | 140 | 18.0 | 25.0 | 0.53 | 0.62 | 0.62 | 87 | 1009.4 |
| 20260507175403 | 58 | 118 | 17.0 | 22.0 | 0.49 | 0.58 | 0.58 | 89 | 1009.7 |
| 20260507174903 | 58 | 122 | 9.0 | 16.0 | 0.41 | 0.49 | 0.49 | 89 | 1009.8 |
| 20260507174402 | 58 | 115 | 9.0 | 15.0 | 0.42 | 0.46 | 0.46 | 89 | 1010.0 |
| 20260507173903 | 58 | 129 | 13.0 | 21.0 | 0.42 | 0.42 | 0.42 | 87 | 1009.3 |
| 20260507173402 | 60 | 125 | 14.0 | 21.0 | 0.33 | 0.34 | 0.34 | 83 | 1009.7 |
| 20260507172903 | 61 | 69 | 9.0 | 14.0 | 0.17 | 0.18 | 0.18 | 81 | 1009.5 |
| 20260507171903 | 64 | 80 | 8.0 | 15.0 | 0.11 | 0.12 | 0.12 | 80 | 1009.1 |
| 20260507171403 | 65 | 57 | 6.0 | 13.0 | 0.10 | 0.11 | 0.11 | 84 | 1008.9 |
| 20260507170903 | 64 | 12 | 9.0 | 14.0 | 0.09 | 0.10 | 0.10 | 83 | 1008.7 |
| 20260507165903 | 64 | 7 | 10.0 | 18.0 | 0.09 | 0.10 | 0.10 | 82 | 1008.7 |
| 20260507165402 | 64 | 17 | 6.0 | 10.0 | 0.09 | 0.10 | 0.10 | 85 | 1008.8 |
| 20260507164403 | 65 | 44 | 11.0 | 17.0 | 0.03 | 0.04 | 0.04 | 79 | 1008.9 |
| 20260507163903 | 66 | 23 | 10.0 | 16.0 | 0.00 | 0.01 | 0.01 | 78 | 1008.8 |
| 20260507163403 | 66 | 17 | 9.0 | 14.0 | 0.00 | 0.01 | 0.01 | 78 | 1008.8 |
| 20260507162903 | 66 | 11 | 7.0 | 15.0 | 0.00 | 0.01 | 0.01 | 77 | 1008.6 |
| 20260507162403 | 66 | 22 | 9.0 | 15.0 | 0.00 | 0.01 | 0.01 | 77 | 1008.5 |
| 20260507161903 | 66 | 21 | 9.0 | 13.0 | 0.00 | 0.01 | 0.01 | 76 | 1008.4 |
| 20260507161403 | 66 | 34 | 8.0 | 12.0 | 0.00 | 0.01 | 0.01 | 75 | 1008.4 |
| 20260507160902 | 66 | 27 | 8.0 | 13.0 | 0.00 | 0.01 | 0.01 | 75 | 1008.4 |
| 20260507160403 | 66 | 31 | 8.0 | 13.0 | 0.00 | 0.01 | 0.01 | 75 | 1008.3 |
| 20260507155902 | 66 | 13 | 6.0 | 13.0 | 0.00 | 0.01 | 0.01 | 75 | 1008.3 |
| 20260507155403 | 66 | 8 | 5.0 | 9.0 | 0.00 | 0.01 | 0.01 | 76 | 1008.3 |
| 20260507154402 | 66 | 30 | 9.0 | 14.0 | 0.00 | 0.01 | 0.01 | 75 | 1008.3 |
| 20260507153903 | 66 | 45 | 8.0 | 12.0 | 0.00 | 0.01 | 0.01 | 76 | 1008.2 |
| 20260507153403 | 66 | 42 | 8.0 | 12.0 | 0.00 | 0.01 | 0.01 | 75 | 1008.2 |
| 20260507152902 | 66 | 48 | 6.0 | 12.0 | 0.00 | 0.01 | 0.01 | 75 | 1008.3 |
| 20260507152403 | 66 | 31 | 8.0 | 12.0 | 0.00 | 0.01 | 0.01 | 75 | 1008.2 |
| 20260507151903 | 66 | 32 | 5.0 | 10.0 | 0.00 | 0.01 | 0.01 | 76 | 1008.2 |
| 20260507151402 | 66 | 8 | 8.0 | 13.0 | 0.00 | 0.01 | 0.01 | 76 | 1008.2 |
| 20260507150403 | 66 | 34 | 9.0 | 12.0 | 0.00 | 0.01 | 0.01 | 76 | 1008.2 |
| 20260507145404 | 67 | 33 | 5.0 | 10.0 | 0.00 | 0.01 | 0.01 | 74 | 1008.3 |
| 20260507144903 | 67 | 356 | 5.0 | 10.0 | 0.00 | 0.01 | 0.01 | 74 | 1008.3 |
| 20260507144403 | 67 | 31 | 5.0 | 10.0 | 0.00 | 0.01 | 0.01 | 74 | 1008.4 |
| 20260507143903 | 67 | 58 | 5.0 | 12.0 | 0.00 | 0.01 | 0.01 | 74 | 1008.4 |
| 20260507142903 | 67 | 32 | 6.0 | 12.0 | 0.00 | 0.01 | 0.01 | 73 | 1008.6 |
| 20260507142402 | 67 | 53 | 5.0 | 12.0 | 0.00 | 0.01 | 0.01 | 74 | 1008.6 |
| 20260507141902 | 67 | 54 | 6.0 | 12.0 | 0.00 | 0.01 | 0.01 | 72 | 1008.6 |
| 20260507141403 | 67 | 41 | 6.0 | 10.0 | 0.00 | 0.01 | 0.01 | 73 | 1008.7 |
| 20260507140903 | 67 | 39 | 7.0 | 12.0 | 0.00 | 0.01 | 0.01 | 72 | 1008.7 |
| 20260507140403 | 67 | 63 | 9.0 | 14.0 | 0.00 | 0.01 | 0.01 | 72 | 1008.7 |
| 20260507135903 | 67 | 33 | 8.0 | 12.0 | 0.00 | 0.01 | 0.01 | 72 | 1008.7 |
| 20260507135403 | 67 | 16 | 6.0 | 12.0 | 0.00 | 0.01 | 0.01 | 73 | 1008.8 |
| 20260507134902 | 67 | 70 | 6.0 | 12.0 | 0.00 | 0.01 | 0.01 | 73 | 1008.9 |
| 20260507133903 | 67 | 61 | 7.0 | 10.0 | 0.00 | 0.01 | 0.01 | 74 | 1008.8 |
| 20260507133403 | 67 | 30 | 7.0 | 12.0 | 0.00 | 0.01 | 0.01 | 74 | 1008.9 |
| 20260507132902 | 67 | 39 | 7.0 | 12.0 | 0.01 | 0.01 | 0.01 | 73 | 1008.9 |
| 20260507132403 | 66 | 19 | 7.0 | 12.0 | 0.01 | 0.01 | 0.01 | 74 | 1009.1 |
| 20260507131903 | 66 | 29 | 8.0 | 12.0 | 0.01 | 0.01 | 0.01 | 74 | 1009.2 |
| 20260507131403 | 67 | 70 | 7.0 | 12.0 | 0.01 | 0.01 | 0.01 | 73 | 1009.2 |
| 20260507130403 | 66 | 17 | 7.0 | 13.0 | 0.01 | 0.01 | 0.01 | 75 | 1009.5 |
| 20260507125903 | 66 | 28 | 9.0 | 14.0 | 0.01 | 0.01 | 0.01 | 76 | 1009.5 |
| 20260507125403 | 66 | 27 | 7.0 | 14.0 | 0.01 | 0.01 | 0.01 | 77 | 1009.5 |
| 20260507124903 | 66 | 28 | 6.0 | 10.0 | 0.01 | 0.01 | 0.01 | 79 | 1009.5 |
| 20260507124403 | 65 | 35 | 11.0 | 13.0 | 0.01 | 0.01 | 0.01 | 78 | 1009.5 |
| 20260507123402 | 65 | 38 | 9.0 | 13.0 | 0.01 | 0.01 | 0.01 | 78 | 1009.5 |
| 20260507122903 | 66 | 33 | 10.0 | 16.0 | 0.00 | 0.00 | 0.00 | 75 | 1009.6 |
| 20260507122402 | 66 | 33 | 10.0 | 13.0 | 0.00 | 0.00 | 0.00 | 76 | 1009.6 |
| 20260507121903 | 67 | 28 | 9.0 | 13.0 | 0.00 | 0.00 | 0.00 | 75 | 1009.6 |
| 20260507121402 | 67 | 42 | 6.0 | 10.0 | 0.00 | 0.00 | 0.00 | 73 | 1009.6 |
| 20260507120902 | 67 | 3 | 5.0 | 10.0 | 0.00 | 0.00 | 0.00 | 74 | 1009.6 |
| 20260507120403 | 68 | 50 | 9.0 | 14.0 | 0.00 | 0.00 | 0.00 | 73 | 1009.7 |
| 20260507115903 | 68 | 40 | 5.0 | 12.0 | 0.00 | 0.00 | 0.00 | 73 | 1009.7 |
| 20260507115402 | 67 | 22 | 5.0 | 12.0 | 0.00 | 0.00 | 0.00 | 74 | 1009.9 |
| 20260507114903 | 67 | 41 | 5.0 | 12.0 | 0.00 | 0.00 | 0.00 | 74 | 1010.0 |
| 20260507114403 | 67 | 63 | 7.0 | 12.0 | 0.00 | 0.00 | 0.00 | 74 | 1009.9 |
| 20260507113903 | 67 | 35 | 6.0 | 12.0 | 0.00 | 0.00 | 0.00 | 73 | 1010.1 |
| 20260507113403 | 67 | 28 | 4.0 | 10.0 | 0.00 | 0.00 | 0.00 | 74 | 1010.1 |
| 20260507112403 | 67 | 59 | 6.0 | 12.0 | 0.00 | 0.00 | 0.00 | 73 | 1010.1 |
| 20260507111904 | 67 | 41 | 5.0 | 8.0 | 0.00 | 0.00 | 0.00 | 73 | 1010.2 |
| 20260507111403 | 67 | 7 | 4.0 | 10.0 | 0.00 | 0.00 | 0.00 | 73 | 1010.2 |
| 20260507110903 | 67 | 2 | 3.0 | 10.0 | 0.00 | 0.00 | 0.00 | 75 | 1010.3 |
| 20260507110402 | 67 | 52 | 4.0 | 8.0 | 0.00 | 0.00 | 0.00 | 74 | 1010.2 |
| 20260507105903 | 67 | 41 | 5.0 | 9.0 | 0.00 | 0.00 | 0.00 | 74 | 1010.2 |
| 20260507104903 | 67 | 61 | 3.0 | 9.0 | 0.00 | 0.00 | 0.00 | 75 | 1010.3 |
| 20260507104403 | 66 | 55 | 5.0 | 10.0 | 0.00 | 0.00 | 0.00 | 75 | 1010.2 |
| 20260507103903 | 67 | 57 | 5.0 | 8.0 | 0.00 | 0.00 | 0.00 | 74 | 1010.3 |
| 20260507103403 | 67 | 72 | 5.0 | 8.0 | 0.00 | 0.00 | 0.00 | 74 | 1010.4 |
| 20260507102903 | 67 | 65 | 5.0 | 8.0 | 0.00 | 0.00 | 0.00 | 76 | 1010.4 |
| 20260507101903 | 67 | 40 | 6.0 | 8.0 | 0.00 | 0.00 | 0.00 | 75 | 1010.3 |
| 20260507100403 | 67 | 52 | 5.0 | 7.0 | 0.00 | 0.00 | 0.00 | 75 | 1010.4 |
| 20260507095403 | 67 | 1 | 7.0 | 9.0 | 0.00 | 0.00 | 0.00 | 76 | 1010.5 |
| 20260507094903 | 67 | 53 | 5.0 | 8.0 | 0.00 | 0.00 | 0.00 | 75 | 1010.4 |
| 20260507094403 | 67 | 68 | 4.0 | 7.0 | 0.00 | 0.00 | 0.00 | 75 | 1010.6 |
| 20260507093904 | 67 | 33 | 4.0 | 9.0 | 0.00 | 0.00 | 0.00 | 73 | 1010.5 |
| 20260507093403 | 67 | 15 | 6.0 | 9.0 | 0.00 | 0.00 | 0.00 | 74 | 1010.6 |
| 20260507092903 | 67 | 31 | 2.0 | 7.0 | 0.00 | 0.00 | 0.00 | 76 | 1010.6 |
| 20260507092403 | 66 | 12 | 5.0 | 10.0 | 0.00 | 0.00 | 0.00 | 76 | 1010.5 |
| 20260507091903 | 66 | 14 | 6.0 | 9.0 | 0.00 | 0.00 | 0.00 | 76 | 1010.4 |
| 20260507091403 | 66 | 23 | 6.0 | 9.0 | 0.00 | 0.00 | 0.00 | 76 | 1010.3 |
| 20260507090903 | 66 | 11 | 5.0 | 7.0 | 0.00 | 0.00 | 0.00 | 76 | 1010.5 |
| 20260507090403 | 66 | 345 | 5.0 | 8.0 | 0.00 | 0.00 | 0.00 | 77 | 1010.6 |
| 20260507085903 | 66 | 31 | 6.0 | 10.0 | 0.00 | 0.00 | 0.00 | 77 | 1010.6 |
| 20260507084903 | 66 | 37 | 5.0 | 8.0 | 0.00 | 0.00 | 0.00 | 75 | 1010.6 |
| 20260507084403 | 66 | 22 | 2.0 | 8.0 | 0.00 | 0.00 | 0.00 | 75 | 1010.6 |
| 20260507083903 | 66 | 347 | 4.0 | 8.0 | 0.00 | 0.00 | 0.00 | 75 | 1010.5 |
| 20260507083403 | 66 | 342 | 5.0 | 8.0 | 0.00 | 0.00 | 0.00 | 75 | 1010.4 |
| 20260507082903 | 65 | 304 | 3.0 | 6.0 | 0.00 | 0.00 | 0.00 | 75 | 1010.4 |
| 20260507082403 | 65 | 314 | 4.0 | 8.0 | 0.00 | 0.00 | 0.00 | 75 | 1010.3 |
| 20260507081903 | 65 | 334 | 4.0 | 8.0 | 0.00 | 0.00 | 0.00 | 75 | 1010.2 |
| 20260507081403 | 65 | 316 | 5.0 | 9.0 | 0.00 | 0.00 | 0.00 | 75 | 1010.2 |
| 20260507080903 | 65 | 270 | 5.0 | 10.0 | 0.00 | 0.00 | 0.00 | 75 | 1010.3 |
| 20260507080403 | 65 | 306 | 3.0 | 10.0 | 0.00 | 0.00 | 0.00 | 75 | 1010.2 |
| 20260507075903 | 64 | 313 | 4.0 | 9.0 | 0.00 | 0.00 | 0.00 | 75 | 1010.3 |
| 20260507075403 | 64 | 302 | 6.0 | 10.0 | 0.00 | 0.00 | 0.00 | 75 | 1010.3 |
| 20260507074903 | 65 | 289 | 5.0 | 9.0 | 0.00 | 0.00 | 0.00 | 75 | 1010.2 |
| 20260507074403 | 64 | 312 | 4.0 | 7.0 | 0.00 | 0.00 | 0.00 | 75 | 1010.2 |
| 20260507073903 | 64 | 299 | 6.0 | 10.0 | 0.00 | 0.00 | 0.00 | 75 | 1010.1 |
| 20260507072904 | 64 | 286 | 5.0 | 8.0 | 0.00 | 0.00 | 0.00 | 75 | 1010.1 |
| 20260507072403 | 64 | 294 | 4.0 | 8.0 | 0.00 | 0.00 | 0.00 | 75 | 1010.1 |
| 20260507071903 | 64 | 307 | 4.0 | 7.0 | 0.00 | 0.00 | 0.00 | 75 | 1010.1 |
| 20260507070903 | 63 | 267 | 4.0 | 6.0 | 0.00 | 0.00 | 0.00 | 75 | 1010.1 |
| 20260507064903 | 61 | 270 | 4.0 | 6.0 | 0.00 | 0.00 | 0.00 | 78 | 1010.1 |
| 20260507063902 | 61 | 234 | 3.0 | 6.0 | 0.00 | 0.00 | 0.00 | 78 | 1010.3 |
| 20260507063403 | 61 | 208 | 5.0 | 6.0 | 0.00 | 0.00 | 0.00 | 79 | 1010.2 |
| 20260507062903 | 61 | 224 | 3.0 | 6.0 | 0.00 | 0.00 | 0.00 | 79 | 1010.3 |
| 20260507062403 | 61 | 217 | 3.0 | 5.0 | 0.00 | 0.00 | 0.00 | 79 | 1010.1 |
| 20260507061904 | 60 | 230 | 2.0 | 5.0 | 0.00 | 0.00 | 0.00 | 79 | 1010.2 |
| 20260507061403 | 60 | 253 | 3.0 | 7.0 | 0.00 | 0.00 | 0.00 | 79 | 1010.2 |
| 20260507060903 | 60 | 247 | 3.0 | 6.0 | 0.00 | 0.00 | 0.00 | 79 | 1010.1 |